Orbital Elements
Epoch 2003 Feb. 10.0 TT = JDT 2452680.5
T 2003 Feb. 3.66038 TT MPC
q 4.9163010 (2000.0) P Q
z -0.0002543 Peri. 11.42237 -0.32608174 +0.43246387
+/-0.0000052 Node 246.09204 -0.92352584 -0.33566138
e 1.0012503 Incl. 66.85587 -0.20191764 +0.83684314
>From 954 observations 2003 Apr. 8-Aug. 4, mean residual 0".58.
|